Regional Weather Roundup
Issued by NWS

Home | Current Version | Previous Version | Graphics & Text | Print | Product List | Glossary On
Versions: 1 2 3 4 5 6 7 8 9 10 11 12 13 14 15 16 17 18 19 20 21 22 23 24 25 26 27 28 29 30 31 32 33 34 35 36 37 38 39 40 41 42 43 44 45 46 47 48 49 50
000
ASUS44 KMEG 172200
RWRTN
TENNESSEE HOURLY STATE WEATHER ROUNDUP
NATIONAL WEATHER SERVICE MEMPHIS TN
500 PM CDT FRI APR 17 2015

TNZ002-004-019-021-049-052-054-088>092-172300-
WEST TENNESSEE

CITY           SKY/WX    TMP DP  RH WIND       PRES   REMARKS
MEMPHIS INTL   PTSUNNY   74  64  71 N5        29.98S
NWS MEMPHIS      N/A     71 N/A N/A MISG        N/A
JACKSON        CLOUDY    68  60  75 CALM      30.00S
DYERSBURG      PTSUNNY   72  54  53 NE6       30.00S
UNION CITY     CLOUDY    70  32  24 NE5       29.99S
PARIS          CLOUDY    72  61  68 VRB6      30.00S
LEXINGTON      SUNNY     66  61  82 N5        29.99S
SAVANNAH       CLOUDY    70  32  24 CALM      29.99F
$$

TNZ008-025-027-028-033-062-065-066-172300-
NORTH MIDDLE TENNESSEE

CITY           SKY/WX    TMP DP  RH WIND       PRES   REMARKS
NASHVILLE      PTSUNNY   71  60  68 CALM      30.03S
CLARKSVILLE    PTSUNNY   72  61  68 SE5       30.01F
COOKEVILLE     SUNNY     72  61  68 N5        30.01S
CROSSVILLE     CLOUDY    68  58  70 S7        30.04F
$$

TNZ061-075-076-078-094-096-097-172300-
SOUTH MIDDLE TENNESSEE

CITY           SKY/WX    TMP DP  RH WIND       PRES   REMARKS
FAYETTEVILLE   CLOUDY    64  61  88 SW3       30.02F
TULLAHOMA      MOSUNNY   68  61  77 CALM      30.03R
WINCHESTER     SUNNY     64  61  88 S9        30.02S
MCMINNVILLE    CLOUDY    72  63  73 SE5       30.02R
COLUMBIA       SUNNY     66  32  28 E7        30.00F
$$

TNZ017-018-042-046-047-172300-
NORTHEAST TENNESSEE

CITY           SKY/WX    TMP DP  RH WIND       PRES   REMARKS
TRI CITIES     CLOUDY    72  56  57 SW7       30.02F
ELIZABETHTON   CLEAR     70  55  60 SW6       30.02F
$$

TNZ012-013-036-069-073-074-172300-
CENTRAL EAST TENNESSEE

CITY           SKY/WX    TMP DP  RH WIND       PRES   REMARKS
KNOXVILLE      CLOUDY    69  59  70 SW3       30.02F
OAK RIDGE      CLOUDY    72  58  61 S5        30.04S
GATLINBURG     CLEAR     70  57  64 CALM      30.02F
$$

TNZ083-085-099-172300-
SOUTHEAST TENNESSEE

CITY           SKY/WX    TMP DP  RH WIND       PRES   REMARKS
CHATTANOOGA    LGT RAIN  63  60  90 CALM      30.04F
$$

SKY/WX REPORTED AS FAIR MEANS FEW OR NO CLOUDS BELOW
12 THOUSAND FEET.



USA.gov is the U.S. government's official web portal to all federal, state and local government web resources and services.